Time,TemperatureF,DewpointF,PressureIn,WindDirection,WindDirectionDegrees,WindSpeedMPH,WindSpeedGustMPH,Humidity,HourlyPrecipIn,Conditions,Clouds,dailyrainin,SoftwareType,DateUTC
2013-08-22 00:06:00,60.4,53.2,29.79,North,0,0.0,-999.0,77,0.00,,,0.00,open2300 v1.10,2013-08-22 07:06:00,
2013-08-22 00:21:00,60.4,53.6,29.79,North,0,0.0,-999.0,78,0.00,,,0.00,open2300 v1.10,2013-08-22 07:21:00,
2013-08-22 00:36:00,60.1,53.2,29.80,North,0,0.0,-999.0,78,0.00,,,0.00,open2300 v1.10,2013-08-22 07:36:00,
2013-08-22 00:51:00,60.1,53.2,29.80,North,0,0.0,-999.0,78,0.00,,,0.00,open2300 v1.10,2013-08-22 07:51:00,
2013-08-22 01:07:00,60.1,53.2,29.79,North,0,0.0,-999.0,78,0.00,,,0.00,open2300 v1.10,2013-08-22 08:07:00,
2013-08-22 01:21:00,60.1,53.2,29.79,North,0,0.0,-999.0,78,0.00,,,0.00,open2300 v1.10,2013-08-22 08:21:00,
2013-08-22 01:36:00,59.9,53.1,29.78,North,0,0.0,-999.0,78,0.00,,,0.00,open2300 v1.10,2013-08-22 08:36:00,
2013-08-22 01:51:00,59.9,53.1,29.79,North,0,0.0,-999.0,78,0.00,,,0.00,open2300 v1.10,2013-08-22 08:51:00,
2013-08-22 02:07:00,59.9,53.1,29.79,North,0,0.0,-999.0,78,0.00,,,0.00,open2300 v1.10,2013-08-22 09:07:00,
2013-08-22 02:21:00,59.7,52.9,29.79,North,0,0.0,-999.0,78,0.00,,,0.00,open2300 v1.10,2013-08-22 09:21:00,
2013-08-22 02:36:00,59.7,52.9,29.79,North,0,0.0,-999.0,78,0.00,,,0.00,open2300 v1.10,2013-08-22 09:36:00,
2013-08-22 02:51:00,59.5,53.1,29.79,North,0,0.0,-999.0,79,0.00,,,0.00,open2300 v1.10,2013-08-22 09:51:00,
2013-08-22 03:07:00,59.5,53.1,29.79,North,0,0.0,-999.0,79,0.00,,,0.00,open2300 v1.10,2013-08-22 10:07:00,
2013-08-22 03:21:00,59.5,53.1,29.80,North,0,0.0,-999.0,79,0.00,,,0.00,open2300 v1.10,2013-08-22 10:21:00,
2013-08-22 03:36:00,59.5,53.1,29.80,North,0,0.0,-999.0,79,0.00,,,0.00,open2300 v1.10,2013-08-22 10:36:00,
2013-08-22 05:36:00,59.5,53.4,29.79,North,0,0.0,-999.0,80,0.00,,,0.00,open2300 v1.10,2013-08-22 12:36:00,
2013-08-22 05:51:00,59.5,53.1,29.79,North,0,0.0,-999.0,79,0.00,,,0.00,open2300 v1.10,2013-08-22 12:51:00,
2013-08-22 06:07:00,59.5,53.1,29.79,North,0,0.0,-999.0,79,0.00,,,0.00,open2300 v1.10,2013-08-22 13:07:00,
2013-08-22 06:21:00,59.5,53.1,29.80,North,0,0.0,-999.0,79,0.00,,,0.00,open2300 v1.10,2013-08-22 13:21:00,
2013-08-22 06:36:00,59.5,53.1,29.81,North,0,0.0,-999.0,79,0.00,,,0.00,open2300 v1.10,2013-08-22 13:36:00,
2013-08-22 06:51:00,59.5,53.1,29.81,North,0,0.0,-999.0,79,0.00,,,0.00,open2300 v1.10,2013-08-22 13:51:00,
2013-08-22 07:21:00,59.9,53.4,29.81,North,0,0.0,-999.0,79,0.00,,,0.00,open2300 v1.10,2013-08-22 14:21:00,
2013-08-22 07:51:00,60.1,53.6,29.83,North,0,0.0,-999.0,79,0.00,,,0.00,open2300 v1.10,2013-08-22 14:51:00,
2013-08-22 08:36:00,60.6,53.8,29.85,North,0,0.0,-999.0,78,0.00,,,0.00,open2300 v1.10,2013-08-22 15:36:00,
2013-08-22 08:51:00,60.8,54.0,29.84,North,0,0.0,-999.0,78,0.00,,,0.00,open2300 v1.10,2013-08-22 15:51:00,
2013-08-22 09:36:00,61.5,54.2,29.85,North,0,0.0,-999.0,77,0.00,,,0.00,open2300 v1.10,2013-08-22 16:36:00,
2013-08-22 09:51:00,61.5,54.2,29.85,North,0,0.0,-999.0,77,0.00,,,0.00,open2300 v1.10,2013-08-22 16:51:00,
2013-08-22 10:06:00,61.5,54.2,29.86,North,0,0.0,-999.0,77,0.00,,,0.00,open2300 v1.10,2013-08-22 17:06:00,
2013-08-22 10:21:00,62.1,54.4,29.86,North,0,0.0,-999.0,76,0.00,,,0.00,open2300 v1.10,2013-08-22 17:21:00,
2013-08-22 10:36:00,62.4,54.3,29.86,North,0,0.0,-999.0,75,0.00,,,0.00,open2300 v1.10,2013-08-22 17:36:00,
2013-08-22 10:51:00,62.8,54.7,29.86,North,0,0.0,-999.0,75,0.00,,,0.00,open2300 v1.10,2013-08-22 17:51:00,
2013-08-22 11:06:00,63.1,54.7,29.86,North,0,0.0,-999.0,74,0.00,,,0.00,open2300 v1.10,2013-08-22 18:06:00,
2013-08-22 11:21:00,64.0,55.2,29.85,North,0,0.0,-999.0,73,0.00,,,0.00,open2300 v1.10,2013-08-22 18:21:00,
2013-08-22 11:36:00,65.1,55.9,29.84,North,0,0.0,-999.0,72,0.00,,,0.00,open2300 v1.10,2013-08-22 18:36:00,
2013-08-22 11:51:00,65.5,55.8,29.84,North,0,0.0,-999.0,71,0.00,,,0.00,open2300 v1.10,2013-08-22 18:51:00,
2013-08-22 12:06:00,65.5,55.5,29.84,North,0,0.0,-999.0,70,0.00,,,0.00,open2300 v1.10,2013-08-22 19:06:00,
2013-08-22 12:21:00,65.1,55.2,29.84,North,0,0.0,-999.0,70,0.00,,,0.00,open2300 v1.10,2013-08-22 19:21:00,
2013-08-22 12:36:00,64.8,54.8,29.84,North,0,0.0,-999.0,70,0.00,,,0.00,open2300 v1.10,2013-08-22 19:36:00,
2013-08-22 12:51:00,64.6,54.7,29.84,North,0,0.0,-999.0,70,0.00,,,0.00,open2300 v1.10,2013-08-22 19:51:00,
2013-08-22 13:06:00,64.6,54.7,29.83,North,0,0.0,-999.0,70,0.00,,,0.00,open2300 v1.10,2013-08-22 20:06:00,
2013-08-22 13:21:00,64.6,54.7,29.83,North,0,0.0,-999.0,70,0.00,,,0.00,open2300 v1.10,2013-08-22 20:21:00,
2013-08-22 13:36:00,64.6,54.7,29.83,North,0,0.0,-999.0,70,0.00,,,0.00,open2300 v1.10,2013-08-22 20:36:00,
2013-08-22 13:51:00,64.6,54.7,29.83,North,0,0.0,-999.0,70,0.00,,,0.00,open2300 v1.10,2013-08-22 20:51:00,
2013-08-22 14:06:00,64.2,54.3,29.83,North,0,0.0,-999.0,70,0.00,,,0.00,open2300 v1.10,2013-08-22 21:06:00,
2013-08-22 14:21:00,64.2,54.3,29.83,North,0,0.0,-999.0,70,0.00,,,0.00,open2300 v1.10,2013-08-22 21:21:00,
2013-08-22 14:36:00,64.2,54.3,29.82,North,0,0.0,-999.0,70,0.00,,,0.00,open2300 v1.10,2013-08-22 21:36:00,
2013-08-22 14:51:00,64.2,54.3,29.81,North,0,0.0,-999.0,70,0.00,,,0.00,open2300 v1.10,2013-08-22 21:51:00,
2013-08-22 15:06:00,64.2,54.3,29.81,North,0,0.0,-999.0,70,0.00,,,0.00,open2300 v1.10,2013-08-22 22:06:00,
2013-08-22 15:21:00,64.2,53.9,29.81,North,0,0.0,-999.0,69,0.00,,,0.00,open2300 v1.10,2013-08-22 22:21:00,
2013-08-22 15:36:00,64.2,53.9,29.80,North,0,0.0,-999.0,69,0.00,,,0.00,open2300 v1.10,2013-08-22 22:36:00,
2013-08-22 15:51:00,64.6,54.2,29.80,North,0,0.0,-999.0,69,0.00,,,0.00,open2300 v1.10,2013-08-22 22:51:00,
2013-08-22 16:06:00,64.9,54.5,29.79,North,0,0.0,-999.0,69,0.00,,,0.00,open2300 v1.10,2013-08-22 23:06:00,
2013-08-22 16:21:00,65.5,54.6,29.79,North,0,0.0,-999.0,68,0.00,,,0.00,open2300 v1.10,2013-08-22 23:21:00,
2013-08-22 16:36:00,66.0,55.1,29.79,North,0,0.0,-999.0,68,0.00,,,0.00,open2300 v1.10,2013-08-22 23:36:00,
2013-08-22 16:51:00,66.4,55.0,29.79,North,0,0.0,-999.0,67,0.00,,,0.00,open2300 v1.10,2013-08-22 23:51:00,
2013-08-22 17:06:00,66.7,55.0,29.78,North,0,0.0,-999.0,66,0.00,,,0.00,open2300 v1.10,2013-08-23 00:06:00,
2013-08-22 17:21:00,66.9,55.2,29.79,North,0,0.0,-999.0,66,0.00,,,0.00,open2300 v1.10,2013-08-23 00:21:00,
2013-08-22 17:36:00,67.5,55.2,29.78,North,0,0.0,-999.0,65,0.00,,,0.00,open2300 v1.10,2013-08-23 00:36:00,
2013-08-22 17:51:00,67.8,55.2,29.78,North,0,0.0,-999.0,64,0.00,,,0.00,open2300 v1.10,2013-08-23 00:51:00,
2013-08-22 18:06:00,67.3,55.1,29.77,North,0,0.0,-999.0,65,0.00,,,0.00,open2300 v1.10,2013-08-23 01:06:00,
2013-08-22 18:21:00,66.7,54.5,29.77,North,0,0.0,-999.0,65,0.00,,,0.00,open2300 v1.10,2013-08-23 01:21:00,
2013-08-22 18:36:00,66.6,54.8,29.76,North,0,0.0,-999.0,66,0.00,,,0.00,open2300 v1.10,2013-08-23 01:36:00,
2013-08-22 18:51:00,66.0,54.3,29.77,North,0,0.0,-999.0,66,0.00,,,0.00,open2300 v1.10,2013-08-23 01:51:00,
2013-08-22 19:06:00,65.3,54.0,29.76,North,0,0.0,-999.0,67,0.00,,,0.00,open2300 v1.10,2013-08-23 02:06:00,
2013-08-22 19:21:00,64.6,53.8,29.77,North,0,0.0,-999.0,68,0.00,,,0.00,open2300 v1.10,2013-08-23 02:21:00,
2013-08-22 19:36:00,63.5,53.2,29.77,North,0,0.0,-999.0,69,0.00,,,0.00,open2300 v1.10,2013-08-23 02:36:00,
2013-08-22 19:51:00,62.4,52.9,29.78,North,0,0.0,-999.0,71,0.00,,,0.00,open2300 v1.10,2013-08-23 02:51:00,
2013-08-22 20:06:00,61.7,52.6,29.78,North,0,0.0,-999.0,72,0.00,,,0.00,open2300 v1.10,2013-08-23 03:06:00,
2013-08-22 20:21:00,61.5,53.2,29.78,North,0,0.0,-999.0,74,0.00,,,0.00,open2300 v1.10,2013-08-23 03:21:00,
2013-08-22 20:36:00,61.2,52.8,29.79,North,0,0.0,-999.0,74,0.00,,,0.00,open2300 v1.10,2013-08-23 03:36:00,
2013-08-22 20:51:00,61.2,52.8,29.79,North,0,0.0,-999.0,74,0.00,,,0.00,open2300 v1.10,2013-08-23 03:51:00,
2013-08-22 21:06:00,60.8,52.9,29.79,North,0,0.0,-999.0,75,0.00,,,0.00,open2300 v1.10,2013-08-23 04:06:00,
2013-08-22 21:21:00,60.6,52.7,29.80,North,0,0.0,-999.0,75,0.00,,,0.00,open2300 v1.10,2013-08-23 04:21:00,
2013-08-22 21:36:00,60.4,52.9,29.80,North,0,0.0,-999.0,76,0.00,,,0.00,open2300 v1.10,2013-08-23 04:36:00,
2013-08-22 21:51:00,60.1,52.5,29.80,North,0,0.0,-999.0,76,0.00,,,0.00,open2300 v1.10,2013-08-23 04:51:00,
2013-08-22 22:06:00,60.1,52.5,29.80,North,0,0.0,-999.0,76,0.00,,,0.00,open2300 v1.10,2013-08-23 05:06:00,
2013-08-22 22:21:00,60.1,52.5,29.80,North,0,0.0,-999.0,76,0.00,,,0.00,open2300 v1.10,2013-08-23 05:21:00,
2013-08-22 22:36:00,60.4,52.9,29.80,North,0,0.0,-999.0,76,0.00,,,0.00,open2300 v1.10,2013-08-23 05:36:00,
2013-08-22 22:51:00,60.1,52.9,29.79,North,0,0.0,-999.0,77,0.00,,,0.00,open2300 v1.10,2013-08-23 05:51:00,
2013-08-22 23:06:00,60.1,52.9,29.80,North,0,0.0,-999.0,77,0.00,,,0.00,open2300 v1.10,2013-08-23 06:06:00,
2013-08-22 23:21:00,60.1,52.9,29.80,North,0,0.0,-999.0,77,0.00,,,0.00,open2300 v1.10,2013-08-23 06:21:00,
2013-08-22 23:36:00,60.1,53.2,29.81,North,0,0.0,-999.0,78,0.00,,,0.00,open2300 v1.10,2013-08-23 06:36:00,
2013-08-22 23:51:00,60.1,53.2,29.81,North,0,0.0,-999.0,78,0.00,,,0.00,open2300 v1.10,2013-08-23 06:51:00,